DECAYED

STARLINK-1030, 44735 (Decayed)

Orbit data source: Space-Track

STARLINK-1030, 44735 was a payload satellite owned by SpaceX/Seattle (US) in LEO that was launched on Mon, 11 Nov 2019 UTC via an FALCON 9 launch vehicle from the Air Force Eastern Test Range (AFETR). Payload-class satellites include a variety of spacecraft equipped with specific instruments for various scientific and technological missions. These include communications satellites like Starlink; space stations such as the ISS; scientific satellites like the Hubble; Earth observation satellites from companies like Planet Labs, Umbra, and HawkEye 360; GPS; miniature CubeSats for education and research; and military/defense satellites.

Not visible in the next 10 days
Identifier
44735, 2019-074Y
Orbit
Decayed
Country
Flag of USUS
Related business
Manufacturer
SpaceX/Seattle
Mission
Decayed Commercial Communications
Bus & Motor
STARLINK, Unknown motor
Mass
260 kg wet, ~248 kg dry
Launch date (UTC)
2019-11-11 (6 years ago)
Launch vehicle
FALCON 9
Launch site
Air Force Eastern Test Range (AFETR)
Object type
Payload
Rocket body
Debris
Shape & HBR
Box + 1 Pan, 10.1 m
Radar Cross Section
13.562 m², Large (>1 m²)

Expand to show TLE details & history
Last TLE update: 1 month ago

TLE from 1 month ago
0 STARLINK-1030
1 44735U 19074Y   25262.38420304  .12673879  12495-4  23705-3 0  9993
2 44735  53.0281 194.0307 0006753 236.6120 123.4284 16.47034254323502
Epoch: 2025-09-19T09:13Z
TLE epoch observation values (Epoch: 2025-09-19T09:13:15.142Z)
Latitude
-0°
Longitude
57.18539°
Altitude
150.516 km
Speed
7.816 km/s
True Right ascension
12h 56m 07s
True Declination
0° 00' 00"
Sunlit
Object was in daylight at epoch
Visualization orbit readout
Latitude
Unknown
Longitude
Unknown
Altitude
Unknown
Speed
Unknown
Apparent Right ascension
Unknown
Apparent Declination
Unknown
Sunlit
N/A
Visualization observer readout
Local Sidereal Time
04:10:28
Azimuth
Unknown
Elevation
Unknown
Doppler factor
Unknown
Orbital elements
Apogee altitude
151.855 km
Perigee altitude
143.042 km
Semi-major axis
6,525.585 km
Eccentricity
0.00068
Inclination
53.0281°
RAAN
194.0307°
Arg. of periapsis
236.612°
True anomaly
123.49295°
Mean anomaly
123.4284°
Eccentric anomaly
123.46068°
Mean motion
4.11731 °/min
Orbital period
87.44 mins
BSTAR
0.00023705
Loading maneuver chart data...
Computing Atmospheric mass density...
Loading historical data...
Loading historical data...
Loading historical data...
Loading historical data...
Loading historical data...
Loading historical data...
Loading historical data...

Documentation

Showing up to 5 results
|